Glencoe, MN

1:57 PM CDT on March 29, 2017 (GMT -0500)
Glencoe Municipal

Weather History for KGYL - June, 2013

Change the Weather History Date:

Monday, June 10, 2013

  Actual Average (KHCD) Record (KHCD)
Temperature  
Mean Temperature 66 °F -  
Max Temperature 73 °F 78 °F 96 °F (1973)
Min Temperature 59 °F 54 °F 38 °F (1972)
Cooling Degree Days 1    
Growing Degree Days 16 (Base 50)    
Moisture  
Dew Point 58 °F    
Average Humidity 79    
Maximum Humidity 91    
Minimum Humidity 58    
Precipitation  
Precipitation 0.00 in - - ()
Sea Level Pressure  
Sea Level Pressure 29.84 in    
Wind  
Wind Speed 4 mph (WNW)    
Max Wind Speed 8 mph    
Max Gust Speed -    
Visibility 7 miles    
Events Fog    
Averages and records for this station are not official NWS values.
T = Trace of Precipitation, MM = Missing Value Source: NWS Daily Summary

Daily Weather History Graph

Daily Weather History Graph

Search for Another Location

Airport or City:

Trip Planner

Search our weather history database for the weather conditions in past years. The results will help you decide how hot, cold, wet, or windy it might be!

Date:

Astronomy

Jun. 10, 2013 Rise Set
Actual Time 5:30 AM CDT 9:01 PM CDT
Civil Twilight 4:53 AM CDT 9:38 PM CDT
Nautical Twilight 4:04 AM CDT 10:27 PM CDT
Astronomical Twilight 3:02 AM CDT 11:30 PM CDT
Moon 7:23 AM CDT (6/10) 10:24 PM CDT (6/10)
Length of Visible Light 16h 44m
Length of Day
15h 31m
Waxing Crescent, 4% of the Moon is Illuminated
Jun 10
Waxing Crescent
Jun 16
First Quarter
Jun 23
Full
Jun 29
Last Quarter
Jul 8
New

Hourly Weather History & Observations

Time (CDT) Temp. Dew Point Humidity Pressure Visibility Wind Dir Wind Speed Gust Speed Precip Events Conditions
12:14 AM 61.7 °F 57.6 °F 86% 29.82 in 5.0 mi NNE 3.5 mph - N/A   Overcast
12:35 AM 61.3 °F 57.6 °F 87% 29.82 in 5.0 mi North 4.6 mph - N/A   Overcast
12:55 AM 61.3 °F 57.6 °F 87% 29.82 in 5.0 mi North 4.6 mph - N/A   Overcast
1:14 AM 61.3 °F 57.7 °F 88% 29.82 in 5.0 mi North 3.5 mph - N/A   Overcast
1:35 AM 61.2 °F 57.6 °F 88% 29.82 in 5.0 mi NNW 5.8 mph - N/A   Overcast
1:55 AM 61.2 °F 57.7 °F 88% 29.81 in 5.0 mi NNW 3.5 mph - N/A   Overcast
2:14 AM 61.2 °F 57.6 °F 88% 29.81 in 5.0 mi Calm Calm - N/A   Overcast
2:35 AM 61.2 °F 57.7 °F 88% 29.81 in 5.0 mi Calm Calm - N/A   Overcast
2:55 AM 61.0 °F 57.6 °F 88% 29.81 in 4.0 mi North 3.5 mph - N/A   Overcast
3:14 AM 61.2 °F 57.7 °F 88% 29.81 in 4.0 mi Calm Calm - N/A   Overcast
3:35 AM 61.2 °F 57.7 °F 88% 29.81 in 4.0 mi NNW 3.5 mph - N/A   Overcast
3:55 AM 61.0 °F 57.7 °F 89% 29.81 in 4.0 mi Calm Calm - N/A   Overcast
4:14 AM 60.8 °F 57.6 °F 89% 29.81 in 2.0 mi NNW 3.5 mph - N/A   Overcast
4:35 AM 60.8 °F 57.6 °F 89% 29.81 in 0.8 mi NNW 4.6 mph - N/A   Overcast
4:55 AM 60.4 °F 57.6 °F 90% 29.81 in 0.5 mi NNW 4.6 mph - N/A Fog Fog
5:14 AM 60.4 °F 57.6 °F 90% 29.81 in 0.2 mi NNW 3.5 mph - N/A Fog Fog
5:35 AM 60.4 °F 57.6 °F 90% 29.81 in 0.2 mi Calm Calm - N/A Fog Fog
5:55 AM 60.3 °F 57.6 °F 91% 29.81 in 0.2 mi NW 3.5 mph - N/A Fog Fog
6:14 AM 59.9 °F 57.2 °F 91% 29.81 in 0.2 mi NW 4.6 mph - N/A Fog Fog
6:35 AM 59.9 °F 57.2 °F 91% 29.82 in 0.2 mi NNW 4.6 mph - N/A Fog Fog
6:55 AM 59.9 °F 57.2 °F 91% 29.82 in 0.2 mi NNW 5.8 mph - N/A Fog Fog
7:14 AM 60.1 °F 57.4 °F 91% 29.82 in 0.2 mi Calm Calm - N/A Fog Fog
7:35 AM 60.4 °F 57.7 °F 91% 29.83 in 0.2 mi NW 4.6 mph - N/A Fog Fog
7:54 AM 60.8 °F 58.1 °F 91% 29.83 in 0.2 mi NW 3.5 mph - N/A Fog Fog
8:14 AM 60.8 °F 58.1 °F 91% 29.84 in 1.0 mi NW 3.5 mph - N/A   Overcast
8:35 AM 61.3 °F 58.6 °F 91% 29.86 in 2.5 mi West 6.9 mph - N/A   Overcast
8:54 AM 61.5 °F 58.8 °F 91% 29.85 in 3.0 mi WNW 5.8 mph - N/A   Overcast
9:14 AM 61.7 °F 59.0 °F 91% 29.87 in 2.5 mi WNW 8.1 mph - N/A   Overcast
9:35 AM 61.5 °F 58.5 °F 90% 29.86 in 2.5 mi NW 8.1 mph - N/A   Overcast
9:55 AM 61.7 °F 58.5 °F 89% 29.87 in 2.5 mi NW 8.1 mph - N/A   Overcast
10:14 AM 61.9 °F 58.3 °F 88% 29.86 in 3.0 mi NW 4.6 mph - N/A   Overcast
10:35 AM 63.5 °F 58.1 °F 83% 29.87 in 7.0 mi WNW 6.9 mph - N/A   Overcast
10:55 AM 63.9 °F 57.0 °F 78% 29.87 in 10.0 mi West 8.1 mph - N/A   Overcast
11:14 AM 63.7 °F 57.4 °F 80% 29.87 in 10.0 mi WNW 6.9 mph - N/A   Overcast
11:35 AM 64.0 °F 57.4 °F 79% 29.87 in 10.0 mi West 4.6 mph - N/A   Overcast
11:55 AM 64.2 °F 57.2 °F 78% 29.86 in 10.0 mi NW 4.6 mph - N/A   Overcast
12:14 PM 64.4 °F 57.0 °F 77% 29.87 in 10.0 mi WNW 4.6 mph - N/A   Overcast
12:35 PM 64.8 °F 57.4 °F 77% 29.86 in 10.0 mi NW 3.5 mph - N/A   Overcast
12:55 PM 65.3 °F 57.2 °F 75% 29.85 in 10.0 mi Calm Calm - N/A   Overcast
1:14 PM 65.7 °F 57.7 °F 76% 29.85 in 10.0 mi Calm Calm - N/A   Overcast
1:35 PM 66.2 °F 57.0 °F 72% 29.86 in 10.0 mi Calm Calm - N/A   Overcast
1:55 PM 67.1 °F 57.4 °F 71% 29.86 in 10.0 mi Calm Calm - N/A   Overcast
2:14 PM 67.1 °F 57.9 °F 72% 29.86 in 10.0 mi Calm Calm - N/A   Overcast
2:35 PM 67.5 °F 57.9 °F 71% 29.85 in 10.0 mi Calm Calm - N/A   Overcast
2:55 PM 68.9 °F 57.6 °F 67% 29.85 in 10.0 mi South 3.5 mph - N/A   Mostly Cloudy
3:15 PM 69.1 °F 57.9 °F 68% 29.85 in 10.0 mi Calm Calm - N/A   Mostly Cloudy
3:35 PM 69.8 °F 58.6 °F 68% 29.85 in 10.0 mi South 4.6 mph - N/A   Mostly Cloudy
3:54 PM 71.4 °F 58.6 °F 64% 29.85 in 10.0 mi SSW 6.9 mph - N/A   Overcast
4:15 PM 71.6 °F 58.5 °F 63% 29.85 in 10.0 mi SSW 5.8 mph - N/A   Mostly Cloudy
4:34 PM 70.7 °F 58.3 °F 65% 29.84 in 10.0 mi South 4.6 mph - N/A   Scattered Clouds
4:55 PM 72.5 °F 58.3 °F 61% 29.84 in 10.0 mi SW 4.6 mph - N/A   Scattered Clouds
5:15 PM 72.0 °F 58.3 °F 62% 29.85 in 10.0 mi Calm Calm - N/A   Mostly Cloudy
5:35 PM 71.6 °F 58.6 °F 64% 29.85 in 10.0 mi South 4.6 mph - N/A   Mostly Cloudy
5:54 PM 73.6 °F 58.1 °F 58% 29.84 in 10.0 mi SSE 3.5 mph - N/A   Mostly Cloudy
6:15 PM 73.2 °F 57.6 °F 58% 29.84 in 10.0 mi South 3.5 mph - N/A   Scattered Clouds
6:34 PM 72.0 °F 58.5 °F 62% 29.84 in 10.0 mi South 4.6 mph - N/A   Clear
6:55 PM 72.5 °F 58.1 °F 60% 29.84 in 10.0 mi SSE 3.5 mph - N/A   Clear
7:15 PM 72.7 °F 58.3 °F 60% 29.84 in 10.0 mi SSE 3.5 mph - N/A   Clear
7:34 PM 72.5 °F 57.6 °F 59% 29.83 in 10.0 mi SSE 3.5 mph - N/A   Clear
7:55 PM 71.6 °F 58.1 °F 62% 29.83 in 10.0 mi Calm Calm - N/A   Clear
8:15 PM 71.4 °F 58.6 °F 64% 29.83 in 10.0 mi Calm Calm - N/A   Clear
8:34 PM 70.5 °F 58.6 °F 66% 29.83 in 10.0 mi SSE 3.5 mph - N/A   Clear
8:55 PM 69.3 °F 59.0 °F 70% 29.83 in 10.0 mi Calm Calm - N/A   Clear
9:15 PM 68.2 °F 59.2 °F 73% 29.83 in 10.0 mi SE 4.6 mph - N/A   Clear
9:34 PM 67.5 °F 59.2 °F 75% 29.83 in 10.0 mi SE 5.8 mph - N/A   Clear
9:55 PM 66.6 °F 59.2 °F 77% 29.84 in 10.0 mi SE 3.5 mph - N/A   Clear
10:15 PM 65.8 °F 59.0 °F 79% 29.84 in 10.0 mi SE 5.8 mph - N/A   Clear
10:34 PM 65.3 °F 58.8 °F 80% 29.85 in 10.0 mi SE 3.5 mph - N/A   Clear
10:55 PM 63.7 °F 57.9 °F 81% 29.85 in 10.0 mi Calm Calm - N/A   Clear
11:14 PM 62.4 °F 57.7 °F 85% 29.86 in 10.0 mi Calm Calm - N/A   Clear
11:35 PM 63.0 °F 58.1 °F 84% 29.85 in 10.0 mi SSE 3.5 mph - N/A   Clear
11:55 PM 62.6 °F 57.4 °F 83% 29.85 in 10.0 mi Calm Calm - N/A   Clear